Location: Baumgartsau
(48.4586°N, 14.0864°E)
Time: 08:57:48
(UTC+00:00)

Cosmos 1461 - Visible Passes

Search period start: 13 August 2020 00:00
Search period end: 23 August 2020 00:00
Orbit: 502 x 664 km, 65.0° (Epoch: 12 August)

Date Brightness Start Highest point End Pass type
(mag) Time Alt. Az. Time Alt. Az. Time Alt. Az.
13 Aug 2.9 00:44:29 80° W 00:44:39 83° NW 00:49:17 10° NE visible
13 Aug 5.1 02:21:08 10° WNW 02:24:30 20° NNW 02:27:57 10° NNE visible
13 Aug 5.2 23:13:38 17° E 23:13:38 17° E 23:15:13 10° ENE visible
14 Aug 3.3 00:50:00 53° WNW 00:50:28 56° NW 00:55:01 10° NNE visible
14 Aug 5.4 02:27:41 10° WNW 02:30:35 16° NNW 02:33:33 10° NNE visible
14 Aug 4.8 23:19:07 24° ENE 23:19:07 24° ENE 23:21:24 10° NE visible
15 Aug 4.0 00:55:28 36° WNW 00:56:20 39° NW 01:00:43 10° NNE visible
15 Aug 5.6 02:34:20 10° NW 02:36:43 14° NNW 02:39:09 10° NNE visible
15 Aug 4.4 23:24:34 33° ENE 23:24:34 33° ENE 23:27:21 10° NE visible
16 Aug 4.5 01:00:56 25° WNW 01:02:17 29° NW 01:06:21 10° NNE visible
16 Aug 5.7 02:41:04 10° NW 02:42:54 12° NNW 02:44:44 10° N visible
16 Aug 4.0 23:30:00 44° NE 23:30:00 44° NE 23:33:13 10° NE visible
17 Aug 5.0 01:06:21 17° WNW 01:08:17 23° NNW 01:11:59 10° NNE visible
17 Aug 5.9 02:47:50 10° NNW 02:49:06 11° N 02:50:22 10° N visible
17 Aug 3.8 23:35:23 50° NNE 23:35:23 50° NNE 23:38:59 10° NE visible
18 Aug 5.4 01:11:44 12° WNW 01:14:21 18° NNW 01:17:35 10° NNE visible
18 Aug 6.0 02:54:31 10° NNW 02:55:19 10° N 02:56:09 10° N visible
18 Aug 5.4 22:04:22 14° ENE 22:04:22 14° ENE 22:05:09 10° ENE visible
18 Aug 4.0 23:40:44 45° NNW 23:40:44 45° NNW 23:44:42 10° NNE visible
19 Aug 5.6 01:17:46 10° WNW 01:20:27 15° NNW 01:23:11 10° NNE visible
19 Aug 6.1 03:00:45 10° N 03:01:34 10° N 03:02:22 10° NNE visible
19 Aug 5.1 22:09:41 19° ENE 22:09:41 19° ENE 22:11:13 10° NE visible
19 Aug 4.4 23:46:03 34° NW 23:46:06 34° NW 23:50:22 10° NNE visible
20 Aug 5.8 01:24:27 10° NW 01:26:36 13° NNW 01:28:46 10° N visible
20 Aug 6.1 03:06:31 10° N 03:07:47 11° N 03:09:03 10° NNE visible
20 Aug 4.7 22:14:58 26° NE 22:14:58 26° NE 22:17:07 10° NE visible
20 Aug 4.9 23:51:19 25° NW 23:52:04 26° NW 23:56:00 10° NNE visible
21 Aug 6.0 01:31:13 10° NNW 01:32:47 11° N 01:34:22 10° N visible
21 Aug 6.0 03:12:09 10° N 03:13:59 12° NNE 03:15:50 10° NE visible
21 Aug 4.4 22:20:11 35° NE 22:20:11 35° NE 22:22:55 10° NE visible
21 Aug 5.3 23:56:32 17° WNW 23:58:06 20° NNW 00:01:37 10° NNE visible
22 Aug 6.1 01:37:57 10° NNW 01:39:00 11° N 01:40:03 10° N visible
22 Aug 6.0 03:17:44 10° NNW 03:20:10 14° NNE 03:22:36 10° NE visible
22 Aug 4.2 22:25:20 42° N 22:25:20 42° N 22:28:39 10° NNE visible
